Meteo pe oră la Alliste

Astăzi, 18 Ianuarie, Luni

Timp Temperatura Precipitaţii Vânt Presiune Umiditate
00:00 +3°C° 0.2 mm 5 m/s 758 mmHg 78%
01:00 +2°C° 0.2 mm 5 m/s 758 mmHg 82%
02:00 +2°C° 0 mm 6 m/s 758 mmHg 76%
03:00 +2°C° 0 mm 6 m/s 759 mmHg 71%
04:00 +2°C° 0 mm 6 m/s 759 mmHg 65%
05:00 +2°C° 0 mm 6 m/s 759 mmHg 69%
06:00 +1°C° 0 mm 6 m/s 760 mmHg 72%
07:00 +1°C° 0 mm 6 m/s 760 mmHg 76%
08:00 +2°C° 0 mm 6 m/s 761 mmHg 70%
09:00 +4°C° 0 mm 6 m/s 762 mmHg 65%
10:00 +5°C° 0 mm 6 m/s 762 mmHg 59%
11:00 +5°C° 0.1 mm 6 m/s 763 mmHg 59%
12:00 +5°C° 0.1 mm 7 m/s 763 mmHg 59%
13:00 +5°C° 0.1 mm 7 m/s 763 mmHg 58%
14:00 +5°C° 0 mm 7 m/s 763 mmHg 58%
15:00 +4°C° 0 mm 7 m/s 763 mmHg 58%
16:00 +4°C° 0 mm 6 m/s 764 mmHg 58%
17:00 +3°C° 0 mm 6 m/s 764 mmHg 64%
18:00 +2°C° 0 mm 6 m/s 764 mmHg 69%
19:00 +1°C° 0 mm 5 m/s 765 mmHg 74%
20:00 +1°C° 0 mm 6 m/s 765 mmHg 73%
21:00 +1°C° 0 mm 6 m/s 765 mmHg 71%
22:00 +1°C° 0 mm 6 m/s 766 mmHg 69%
23:00 +1°C° 0 mm 6 m/s 766 mmHg 69%

Mâine, 19 Ianuarie, Marţi

Timp Temperatura Precipitaţii Vânt Presiune Umiditate
00:00 +1°C° 0 mm 6 m/s 766 mmHg 69%
01:00 +1°C° 0 mm 6 m/s 766 mmHg 69%
02:00 +1°C° 0 mm 6 m/s 766 mmHg 69%
03:00 0°C° 0 mm 7 m/s 766 mmHg 69%
04:00 0°C° 0 mm 7 m/s 766 mmHg 69%
05:00 +1°C° 0 mm 6 m/s 767 mmHg 69%
06:00 +1°C° 0 mm 6 m/s 767 mmHg 68%
07:00 +1°C° 0 mm 6 m/s 767 mmHg 68%
08:00 +3°C° 0 mm 6 m/s 767 mmHg 67%
09:00 +5°C° 0 mm 5 m/s 768 mmHg 66%
10:00 +7°C° 0 mm 5 m/s 768 mmHg 66%
11:00 +8°C° 0 mm 5 m/s 768 mmHg 61%
12:00 +9°C° 0 mm 5 m/s 768 mmHg 56%
13:00 +10°C° 0 mm 5 m/s 768 mmHg 52%
14:00 +10°C° 0 mm 4 m/s 768 mmHg 55%
15:00 +10°C° 0 mm 4 m/s 768 mmHg 59%
16:00 +10°C° 0 mm 3 m/s 768 mmHg 63%
17:00 +8°C° 0 mm 2 m/s 768 mmHg 67%
18:00 +7°C° 0 mm 2 m/s 768 mmHg 71%
19:00 +6°C° 0 mm 1 m/s 768 mmHg 75%
20:00 +6°C° 0 mm 1 m/s 768 mmHg 75%
21:00 +5°C° 0 mm 2 m/s 769 mmHg 75%
22:00 +4°C° 0 mm 3 m/s 769 mmHg 75%
23:00 +4°C° 0 mm 3 m/s 769 mmHg 74%

Poimâine, 20 Ianuarie, Miercuri

Timp Temperatura Precipitaţii Vânt Presiune Umiditate
00:00 +4°C° 0 mm 3 m/s 769 mmHg 74%
01:00 +4°C° 0 mm 4 m/s 768 mmHg 74%
02:00 +5°C° 0 mm 4 m/s 768 mmHg 75%
03:00 +5°C° 0 mm 4 m/s 768 mmHg 76%
04:00 +5°C° 0 mm 4 m/s 768 mmHg 78%
05:00 +5°C° 0 mm 3 m/s 768 mmHg 76%
06:00 +5°C° 0 mm 3 m/s 768 mmHg 75%
07:00 +4°C° 0 mm 3 m/s 768 mmHg 74%
08:00 +8°C° 0 mm 3 m/s 768 mmHg 69%
09:00 +10°C° 0 mm 3 m/s 768 mmHg 63%
10:00 +12°C° 0 mm 3 m/s 768 mmHg 58%
11:00 +12°C° 0 mm 3 m/s 767 mmHg 57%
12:00 +12°C° 0 mm 3 m/s 767 mmHg 56%
13:00 +13°C° 0 mm 3 m/s 767 mmHg 55%
14:00 +12°C° 0 mm 3 m/s 767 mmHg 60%
15:00 +11°C° 0 mm 3 m/s 766 mmHg 65%
16:00 +10°C° 0 mm 2 m/s 766 mmHg 69%
17:00 +10°C° 0 mm 3 m/s 766 mmHg 71%
18:00 +9°C° 0 mm 3 m/s 766 mmHg 72%
19:00 +7°C° 0 mm 4 m/s 766 mmHg 74%
20:00 +7°C° 0 mm 4 m/s 766 mmHg 76%
21:00 +7°C° 0 mm 4 m/s 765 mmHg 79%
22:00 +7°C° 0 mm 4 m/s 765 mmHg 81%
23:00 +8°C° 0 mm 5 m/s 765 mmHg 83%

21 Ianuarie, Joi

Timp Temperatura Precipitaţii Vânt Presiune Umiditate
00:00 +8°C° 0 mm 5 m/s 765 mmHg 84%
01:00 +8°C° 0 mm 6 m/s 765 mmHg 86%
02:00 +8°C° 0 mm 6 m/s 764 mmHg 87%
03:00 +9°C° 0 mm 7 m/s 764 mmHg 87%
04:00 +9°C° 0 mm 7 m/s 763 mmHg 88%
05:00 +10°C° 0 mm 8 m/s 763 mmHg 87%
06:00 +10°C° 0 mm 8 m/s 763 mmHg 87%
07:00 +10°C° 0 mm 8 m/s 764 mmHg 87%
08:00 +11°C° 0 mm 9 m/s 763 mmHg 82%
09:00 +12°C° 0 mm 9 m/s 763 mmHg 78%
10:00 +13°C° 0 mm 10 m/s 763 mmHg 74%
11:00 +13°C° 0 mm 10 m/s 763 mmHg 72%
12:00 +14°C° 0 mm 10 m/s 763 mmHg 71%
13:00 +14°C° 0 mm 10 m/s 763 mmHg 70%
14:00 +14°C° 0 mm 10 m/s 762 mmHg 72%
15:00 +13°C° 0 mm 10 m/s 762 mmHg 75%
16:00 +13°C° 0 mm 10 m/s 762 mmHg 78%
17:00 +13°C° 0 mm 10 m/s 762 mmHg 79%
18:00 +13°C° 0 mm 9 m/s 762 mmHg 80%
19:00 +12°C° 0 mm 9 m/s 763 mmHg 81%
20:00 +12°C° 0.1 mm 8 m/s 762 mmHg 82%
21:00 +12°C° 0.1 mm 8 m/s 762 mmHg 83%
22:00 +12°C° 0.1 mm 8 m/s 762 mmHg 84%
23:00 +12°C° 0.1 mm 7 m/s 762 mmHg 85%

22 Ianuarie, Vineri

Timp Temperatura Precipitaţii Vânt Presiune Umiditate
00:00 +12°C° 0.1 mm 7 m/s 762 mmHg 85%
01:00 +11°C° 0.1 mm 6 m/s 762 mmHg 85%
02:00 +11°C° 0 mm 6 m/s 762 mmHg 86%
03:00 +11°C° 0 mm 6 m/s 761 mmHg 87%
04:00 +10°C° 0 mm 6 m/s 761 mmHg 87%
05:00 +10°C° 0 mm 6 m/s 761 mmHg 86%
06:00 +10°C° 0 mm 6 m/s 761 mmHg 85%
07:00 +10°C° 0 mm 5 m/s 761 mmHg 84%
08:00 +11°C° 0 mm 6 m/s 761 mmHg 78%
09:00 +14°C° 0 mm 7 m/s 761 mmHg 72%
10:00 +15°C° 0 mm 8 m/s 761 mmHg 66%
11:00 +15°C° 0 mm 8 m/s 761 mmHg 65%
12:00 +15°C° 0 mm 8 m/s 760 mmHg 64%
13:00 +16°C° 0 mm 9 m/s 760 mmHg 62%
14:00 +15°C° 0 mm 8 m/s 760 mmHg 65%
15:00 +15°C° 0 mm 8 m/s 759 mmHg 68%
16:00 +13°C° 0 mm 8 m/s 759 mmHg 71%
17:00 +13°C° 0 mm 8 m/s 759 mmHg 72%
18:00 +13°C° 0 mm 8 m/s 759 mmHg 73%
19:00 +13°C° 0 mm 8 m/s 758 mmHg 75%
20:00 +13°C° 0 mm 9 m/s 758 mmHg 76%
21:00 +13°C° 0 mm 10 m/s 758 mmHg 76%
22:00 +13°C° 0 mm 10 m/s 757 mmHg 77%
23:00 +13°C° 0 mm 11 m/s 757 mmHg 76%

23 Ianuarie, Sâmbătă

Timp Temperatura Precipitaţii Vânt Presiune Umiditate
00:00 +13°C° 0 mm 12 m/s 756 mmHg 76%
01:00 +13°C° 0 mm 13 m/s 756 mmHg 75%
02:00 +13°C° 0 mm 13 m/s 755 mmHg 76%
03:00 +13°C° 0 mm 14 m/s 754 mmHg 78%
04:00 +13°C° 0 mm 14 m/s 754 mmHg 80%
05:00 +13°C° 0.4 mm 14 m/s 754 mmHg 79%
06:00 +13°C° 0.4 mm 13 m/s 753 mmHg 79%
07:00 +13°C° 0.4 mm 13 m/s 753 mmHg 79%
08:00 +13°C° 0.2 mm 13 m/s 753 mmHg 76%
09:00 +14°C° 0.2 mm 13 m/s 753 mmHg 74%
10:00 +14°C° 0.2 mm 12 m/s 752 mmHg 72%
11:00 +14°C° 0.1 mm 11 m/s 752 mmHg 68%
12:00 +16°C° 0.1 mm 10 m/s 752 mmHg 64%
13:00 +16°C° 0.1 mm 8 m/s 751 mmHg 60%
14:00 +15°C° 0 mm 8 m/s 751 mmHg 61%
15:00 +15°C° 0 mm 8 m/s 751 mmHg 62%
16:00 +13°C° 0 mm 8 m/s 751 mmHg 64%
17:00 +12°C° 0.1 mm 8 m/s 751 mmHg 65%
18:00 +12°C° 0.1 mm 8 m/s 751 mmHg 67%
19:00 +11°C° 0.1 mm 8 m/s 752 mmHg 69%
20:00 +11°C° 0.4 mm 8 m/s 752 mmHg 70%
21:00 +10°C° 0.4 mm 7 m/s 752 mmHg 71%
22:00 +9°C° 0.4 mm 6 m/s 752 mmHg 72%
23:00 +9°C° 0 mm 7 m/s 752 mmHg 71%
Arată mai mult

Formular de consimțământ

Meteoprog și furnizorii noștri de servicii pot stoca și accesa date personale, precum cookies, identificatori de dispozitiv sau alte tehnologii similare pe dispozitivul dumneavoastră și procesa astfel de date pentru a personaliza conținutul și reclamele, dar și pentru a oferi caracteristici de social media și pentru a analiza traficul.

  • Stocarea și/sau accesarea informațiilor pe dispozitivul dumneavoastră

    Cookies, identificatori de dispozitiv sau alte informații pot fi stocate sau accesate pe dispozitiv în scopurile indicate mai sus.

  • Reclame și conținut personalizat, evaluarea reclamelor și a conținutului, informații despre audiențe și dezvoltarea produselor

    Reclamele și conținutul pot fi personalizate pe baza unui profil. Pot fi adăugate date suplimentare pentru a personaliza mai bine reclamele și conținutul. Performanța reclamelor și conținutului poate fi măsurată. Pot fi obținute informații despre utilizatorii care au văzut reclamele și conținutul. Aceste date pot fi utilizate pentru a dezvolta sau îmbunătăți experiența utilizatorilor, sistemele și software-ul.

Dând clic pe ‘Sunt de acord’, permiteți utilizarea cookie-urilor menționate, a identificatorilor de dispozitiv, balizelor web sau altor tehnologii similare. Setările pot fi modificate din browser-ul dispozitivului dumneavoastră.

În anumite scopuri, interesele legitime pot prima asupra consimțământului. Puteți citi mai multe informații în acest sens în Politica privind Confidențialitatea Datelor și Cookie.